Weather History for KVOK - October, 2013

Change the Weather History Date:

Monday, October 7, 2013

  Actual Average Record
Temperature  
Mean Temperature 50 °F -  
Max Temperature 65 °F 59 °F - (-1)
Min Temperature 37 °F 42 °F - (-1)
Degree Days  
Heating Degree Days 14    
Moisture  
Dew Point 44 °F    
Average Humidity 95    
Maximum Humidity 100    
Minimum Humidity 44    
Precipitation  
Precipitation 0.02 in - - ()
Sea Level Pressure  
Sea Level Pressure 29.90 in    
Wind  
Wind Speed 8 mph (WNW)    
Max Wind Speed 15 mph    
Max Gust Speed -    
Visibility 8 miles    
Events Fog , Rain    
Averages and records for this station are not official NWS values.
T = Trace of Precipitation, MM = Missing Value Source: NWS Daily Summary

Daily Weather History Graph

Daily Weather History Graph

Search for Another Location

Airport or City:

Trip Planner

Search our weather history database for the weather conditions in past years. The results will help you decide how hot, cold, wet, or windy it might be!

Date:

Astronomy

Oct. 07, 2013 Rise Set
Actual Time 7:06 AM CDT 6:30 PM CDT
Civil Twilight 6:37 AM CDT 6:59 PM CDT
Nautical Twilight 6:03 AM CDT 7:32 PM CDT
Astronomical Twilight 5:30 AM CDT 8:06 PM CDT
Moon 10:02 AM CDT (10/7) 8:08 PM CDT (10/7)
Length of Visible Light 12h 22m
Length of Day
11h 24m
Waxing Crescent, 9% of the Moon is Illuminated
Oct 7
Waxing Crescent
Oct 11
First Quarter
Oct 18
Full
Oct 26
Last Quarter
Nov 3
New

Hourly Weather History & Observations

Time (CDT) Temp. Windchill Dew Point Humidity Pressure Visibility Wind Dir Wind Speed Gust Speed Precip Events Conditions
12:43 AM 48.2 °F - 42.8 °F 82% 29.73 in 10.0 mi West 11.5 mph - N/A   Overcast
12:48 AM 48.2 °F - 44.6 °F 87% 29.73 in 10.0 mi WNW 12.7 mph - N/A Rain Light Rain
12:58 AM 46.4 °F 41.9 °F 46.4 °F 100% 29.75 in 10.0 mi WNW 9.2 mph - 0.00 in Rain Light Rain
1:05 AM 46.4 °F 41.9 °F 46.4 °F 100% 29.73 in 10.0 mi WNW 9.2 mph - N/A   Overcast
1:10 AM 46.4 °F 40.7 °F 46.4 °F 100% 29.73 in 10.0 mi West 12.7 mph - N/A   Overcast
1:13 AM 46.4 °F 41.9 °F 46.4 °F 100% 29.73 in 10.0 mi WNW 9.2 mph - N/A   Light Drizzle
1:18 AM 46.4 °F 41.9 °F 46.4 °F 100% 29.73 in 10.0 mi WNW 9.2 mph - N/A   Light Drizzle
1:25 AM 46.4 °F 42.4 °F 46.4 °F 100% 29.73 in 10.0 mi West 8.1 mph - N/A   Overcast
1:28 AM 46.4 °F 41.9 °F 46.4 °F 100% 29.74 in 10.0 mi West 9.2 mph - N/A   Light Drizzle
1:58 AM 47.3 °F - 47.3 °F 100% 29.76 in 10.0 mi WNW 10.4 mph - 0.01 in Rain Light Rain
2:08 AM 48.2 °F - 48.2 °F 100% 29.74 in 10.0 mi WNW 10.4 mph - N/A Rain Light Rain
2:11 AM 48.2 °F - 48.2 °F 100% 29.74 in 10.0 mi WNW 11.5 mph - N/A Rain Light Rain
2:16 AM 48.2 °F - 48.2 °F 100% 29.75 in 9.0 mi WNW 10.4 mph - N/A Rain Light Rain
2:26 AM 48.2 °F - 48.2 °F 100% 29.75 in 8.0 mi WNW 9.2 mph - N/A   Light Drizzle
2:31 AM 48.2 °F - 48.2 °F 100% 29.75 in 9.0 mi WNW 13.8 mph - N/A   Light Drizzle
2:51 AM 48.2 °F - 48.2 °F 100% 29.76 in 10.0 mi NW 11.5 mph - N/A   Light Drizzle
2:55 AM 48.2 °F - 48.2 °F 100% 29.76 in 10.0 mi NW 12.7 mph - N/A   Overcast
2:58 AM 48.2 °F - 48.2 °F 100% 29.78 in 10.0 mi NW 15.0 mph - 0.00 in   Overcast
3:23 AM 46.4 °F 41.5 °F 46.4 °F 100% 29.77 in 10.0 mi NW 10.4 mph - N/A   Mostly Cloudy
3:28 AM 46.4 °F 41.1 °F 46.4 °F 100% 29.77 in 10.0 mi WNW 11.5 mph - N/A   Mostly Cloudy
3:38 AM 46.4 °F 41.1 °F 46.4 °F 100% 29.77 in 10.0 mi NW 11.5 mph - N/A   Scattered Clouds
3:58 AM 45.1 °F 39.9 °F 45.1 °F 100% 29.80 in 10.0 mi NW 10.4 mph - N/A   Clear
4:58 AM 44.1 °F 40.8 °F 44.1 °F 100% 29.82 in 10.0 mi WNW 5.8 mph - N/A   Partly Cloudy
5:23 AM 42.8 °F 39.3 °F 42.8 °F 100% 29.81 in 10.0 mi WNW 5.8 mph - N/A   Mostly Cloudy
5:48 AM 42.8 °F 39.3 °F 42.8 °F 100% 29.81 in 10.0 mi WNW 5.8 mph - N/A   Mostly Cloudy
5:52 AM 42.8 °F 38.0 °F 42.8 °F 100% 29.81 in 10.0 mi WNW 8.1 mph - N/A   Overcast
5:58 AM 43.5 °F 38.3 °F 43.5 °F 100% 29.84 in 10.0 mi WNW 9.2 mph - N/A   Overcast
6:03 AM 44.6 °F 40.2 °F 44.6 °F 100% 29.82 in 10.0 mi WNW 8.1 mph - N/A   Overcast
6:48 AM 44.6 °F 41.4 °F 44.6 °F 100% 29.84 in 10.0 mi WNW 5.8 mph - N/A   Overcast
6:58 AM 45.1 °F 41.4 °F 45.1 °F 100% 29.86 in 10.0 mi West 6.9 mph - N/A   Overcast
7:18 AM 44.6 °F 40.2 °F 44.6 °F 100% 29.85 in 10.0 mi WNW 8.1 mph - N/A   Overcast
7:38 AM 44.6 °F 41.4 °F 44.6 °F 100% 29.85 in 10.0 mi West 5.8 mph - N/A   Overcast
7:43 AM 44.6 °F 41.4 °F 44.6 °F 100% 29.85 in 10.0 mi West 5.8 mph - N/A   Overcast
7:58 AM 45.1 °F 41.4 °F 45.1 °F 100% 29.88 in 10.0 mi WNW 6.9 mph - N/A   Overcast
8:58 AM 47.5 °F - 47.5 °F 100% 29.91 in 10.0 mi WNW 6.9 mph - N/A   Mostly Cloudy
9:08 AM 48.2 °F - 48.2 °F 100% 29.89 in 10.0 mi West 5.8 mph - N/A   Mostly Cloudy
9:33 AM 50.0 °F - 48.2 °F 94% 29.89 in 10.0 mi WNW 6.9 mph - N/A   Scattered Clouds
9:58 AM 52.2 °F - 47.7 °F 85% 29.92 in 10.0 mi West 9.2 mph - N/A   Clear
10:58 AM 55.9 °F - 47.8 °F 74% 29.94 in 10.0 mi WNW 8.1 mph - N/A   Clear
11:58 AM 59.5 °F - 47.3 °F 64% 29.95 in 10.0 mi West 11.5 mph - N/A   Clear
12:58 PM 62.4 °F - 45.5 °F 54% 29.95 in 10.0 mi West 9.2 mph - N/A   Clear
1:58 PM - - - N/A% - 10.0 mi West 10.4 mph - N/A   Clear
2:58 PM 63.9 °F - 43.5 °F 48% 29.95 in 10.0 mi West 8.1 mph - N/A   Clear
3:58 PM 64.8 °F - 42.4 °F 44% 29.97 in 10.0 mi West 8.1 mph - N/A   Clear
4:58 PM 64.0 °F - 43.2 °F 47% 29.98 in 10.0 mi West 8.1 mph - N/A   Clear
5:58 PM 59.9 °F - 44.8 °F 57% 29.99 in 10.0 mi West 5.8 mph - N/A   Clear
6:58 PM 49.8 °F - 43.7 °F 79% 30.00 in 10.0 mi West 2.3 mph - N/A   Clear
7:58 PM 43.7 °F - 43.7 °F 100% 30.03 in 10.0 mi Calm Calm - 0.01 in   Clear
8:33 PM 44.6 °F - 44.6 °F 100% 30.01 in 7.0 mi ESE 2.3 mph - N/A   Clear
8:38 PM 42.8 °F - 42.8 °F 100% 30.02 in 10.0 mi ESE 2.3 mph - N/A   Clear
8:58 PM 42.8 °F - 42.8 °F 100% 30.06 in 10.0 mi SE 1.2 mph - N/A   Clear
9:13 PM 41.0 °F - 41.0 °F 100% 30.03 in 4.0 mi ESE 2.3 mph - N/A   Clear
9:28 PM 39.2 °F - 39.2 °F 100% 30.04 in 4.0 mi SE 2.3 mph - N/A   Clear
9:33 PM 41.0 °F - 41.0 °F 100% 30.04 in 9.0 mi Calm Calm - N/A   Clear
9:58 PM 40.8 °F - 40.8 °F 100% 30.07 in 10.0 mi Calm Calm - N/A   Clear
10:38 PM 39.2 °F - 39.2 °F 100% 30.05 in 1.5 mi East 1.2 mph - N/A   Clear
10:43 PM 39.2 °F - 39.2 °F 100% 30.05 in 0.8 mi ESE 1.2 mph - N/A   Clear
10:48 PM 39.2 °F - 39.2 °F 100% 30.05 in 1.5 mi ESE 2.3 mph - N/A   Clear
10:53 PM 39.2 °F - 39.2 °F 100% 30.05 in 7.0 mi East 2.3 mph - N/A   Clear
10:58 PM 38.8 °F 36.5 °F 38.8 °F 100% 30.07 in 5.0 mi ESE 3.5 mph - N/A   Clear
11:03 PM 37.4 °F 34.9 °F 37.4 °F 100% 30.05 in 1.8 mi ESE 3.5 mph - N/A   Clear
11:08 PM 37.4 °F - 37.4 °F 100% 30.05 in 0.8 mi ESE 2.3 mph - N/A   Clear
11:13 PM 37.4 °F - 37.4 °F 100% 30.05 in 0.5 mi East 1.2 mph - N/A Fog Fog
11:18 PM 37.4 °F - 37.4 °F 100% 30.05 in 1.0 mi Calm Calm - N/A   Clear
11:23 PM 37.4 °F - 37.4 °F 100% 30.05 in 1.8 mi ESE 2.3 mph - N/A   Clear
11:28 PM 37.4 °F - 37.4 °F 100% 30.06 in 1.5 mi Calm Calm - N/A   Clear
11:33 PM 37.4 °F - 37.4 °F 100% 30.06 in 3.0 mi Calm Calm - N/A   Clear
11:38 PM 37.4 °F - 37.4 °F 100% 30.05 in 10.0 mi East 1.2 mph - N/A   Clear
11:43 PM 37.4 °F - 37.4 °F 100% 30.05 in 4.0 mi East 2.3 mph - N/A   Clear
11:48 PM 37.4 °F - 37.4 °F 100% 30.06 in 1.5 mi East 2.3 mph - N/A   Clear
11:53 PM 37.4 °F - 37.4 °F 100% 30.05 in 1.0 mi ESE 2.3 mph - N/A   Clear
11:58 PM 37.4 °F 34.9 °F 37.4 °F 100% 30.07 in 1.8 mi East 3.5 mph - N/A   Clear